Flag for Australia

Past Weather in Sydney, New South Wales, Australia — Yesterday and Last 2 Weeks

Now
74 °F

Mild.


Feels Like: 77 °F
Forecast: 79 / 53 °F
Wind: N/A

Location: Sydney Regional Office
Current Time: Oct 1, 2020 at 3:22:40 pm
Latest Report: Oct 1, 2020 at 2:00 pm
Visibility: N/A
Pressure29.96 "Hg
Humidity: 55%
Dew Point: 57 °F
Location of SydneyLocation

Past Weather in Sydney — Graph

°F

Sydney Temperature Yesterday

Maximum temperature yesterday: 69 °F (at 1:00 pm)
Minimum temperature yesterday: 53 °F (at 4:00 am)
Average temperature yesterday: 61 °F

High & Low Weather Summary for the Past Weeks

 TemperatureHumidityPressure
High88 °F (Sep 17, 2:00 pm)100% (Sep 19, 5:00 am)30.48 "Hg (Sep 19, 5:00 am)
Low48 °F (Sep 28, 6:00 am)19% (Sep 22, 2:00 pm)29.50 "Hg (Sep 25, 3:00 pm)
Average63 °F63%30.04 "Hg
* Reported Sep 16 2:00 pm — Oct 1 2:00 pm, Sydney. Weather by CustomWeather, © 2020

Note: Actual official high and low records may vary slightly from our data, if they occured in-between our weather recording intervals... More about our weather records

Sydney Weather History for the Previous 24 Hours

Scroll right to see more
 ConditionsComfort  
Time TempWeatherWind HumidityBarometerVisibility
2:00 pm
Thu, Oct 1
74 °FMild.N/A55%29.96 "HgN/A
1:00 pm77 °FPleasantly warm.N/A37%29.95 "HgN/A
12:00 pm74 °FMild.N/A41%29.95 "HgN/A
11:00 am72 °FMild.N/A49%29.97 "HgN/A
10:00 am70 °FMild.N/A54%29.98 "HgN/A
9:00 am67 °FMild.N/A70%29.97 "HgN/A
8:00 am60 °FCool.N/A85%29.97 "HgN/A
7:00 am58 °FCool.N/A91%29.95 "HgN/A
6:00 am59 °FCool.N/A88%29.94 "HgN/A
5:00 am59 °FCool.N/A82%29.90 "HgN/A
4:00 am59 °FCool.N/A83%29.89 "HgN/A
3:00 am59 °FCool.N/A81%29.89 "HgN/A
2:00 am60 °FCool.N/A79%29.88 "HgN/A
1:00 am61 °FCool.N/A74%29.89 "HgN/A
12:00 am60 °FCool.N/A75%29.91 "HgN/A
11:00 pm
Wed, Sep 30
61 °FCool.N/A73%29.93 "HgN/A
10:00 pm61 °FCool.N/A71%29.95 "HgN/A
9:00 pm62 °FCool.N/A70%29.96 "HgN/A
8:00 pm63 °FMild.N/A66%29.96 "HgN/A
7:00 pm64 °FMild.N/A66%29.95 "HgN/A
6:00 pm65 °FMild.N/A64%29.95 "HgN/A
5:00 pm66 °FMild.N/A64%29.93 "HgN/A
4:00 pm65 °FMild.N/A72%29.94 "HgN/A
3:00 pm65 °FMild.N/A68%29.95 "HgN/A
Weather by CustomWeather, © 2020

See weather overview